| time (UTC) | temp F | wind direction | speed MPH | gust MPH | rain 1hr in | rain 24hr in | rain mn in | humidity % | barometer mb |
| 20260509183055 | 78 | 173 | 2.0 | 5.0 | 0.00 | 0.00 | 0.00 | 52 | 1013.5 |
| 20260509181559 | 77 | 108 | 1.0 | 3.0 | 0.00 | 0.00 | 0.00 | 54 | 1013.5 |
| 20260509180058 | 76 | 306 | 3.0 | 6.0 | 0.00 | 0.00 | 0.00 | 55 | 1013.5 |
| 20260509174549 | 77 | 55 | 2.0 | 4.0 | 0.00 | 0.00 | 0.00 | 57 | 1013.4 |
| 20260509173046 | 75 | 298 | 2.0 | 7.0 | 0.00 | 0.00 | 0.00 | 58 | 1013.6 |
| 20260509171543 | 74 | 318 | 4.0 | 8.0 | 0.00 | 0.00 | 0.00 | 62 | 1013.7 |
| 20260509170041 | 73 | 277 | 2.0 | 6.0 | 0.00 | 0.00 | 0.00 | 67 | 1013.9 |
| 20260509164539 | 72 | 277 | 2.0 | 8.0 | 0.00 | 0.00 | 0.00 | 68 | 1013.8 |
| 20260509163038 | 72 | 300 | 2.0 | 5.0 | 0.00 | 0.00 | 0.00 | 68 | 1013.9 |
| 20260509161536 | 71 | 304 | 4.0 | 8.0 | 0.00 | 0.00 | 0.00 | 70 | 1013.8 |
| 20260509160032 | 71 | 306 | 5.0 | 8.0 | 0.00 | 0.00 | 0.00 | 70 | 1013.8 |
| 20260509154530 | 70 | 355 | 3.0 | 8.0 | 0.00 | 0.00 | 0.00 | 72 | 1013.7 |
| 20260509153026 | 69 | 266 | 5.0 | 10.0 | 0.00 | 0.00 | 0.00 | 75 | 1013.6 |
| 20260509151524 | 68 | 302 | 3.0 | 7.0 | 0.00 | 0.00 | 0.00 | 77 | 1013.6 |
| 20260509150021 | 67 | 293 | 2.0 | 6.0 | 0.00 | 0.00 | 0.00 | 79 | 1013.5 |
| 20260509144530 | 67 | 360 | 3.0 | 8.0 | 0.00 | 0.00 | 0.00 | 80 | 1013.5 |
| 20260509143017 | 66 | 271 | 5.0 | 8.0 | 0.00 | 0.00 | 0.00 | 81 | 1013.7 |
| 20260509141514 | 65 | 229 | 3.0 | 8.0 | 0.00 | 0.00 | 0.00 | 84 | 1013.5 |
| 20260509140010 | 64 | 235 | 2.0 | 8.0 | 0.00 | 0.00 | 0.00 | 85 | 1013.4 |
| 20260509134509 | 63 | 219 | 4.0 | 7.0 | 0.00 | 0.00 | 0.00 | 86 | 1013.3 |
| 20260509133012 | 62 | 232 | 2.0 | 5.0 | 0.00 | 0.00 | 0.00 | 89 | 1013.1 |
| 20260509131506 | 61 | 360 | 2.0 | 4.0 | 0.00 | 0.00 | 0.00 | 89 | 1013.0 |
| 20260509130005 | 60 | 221 | 2.0 | 4.0 | 0.00 | 0.00 | 0.00 | 90 | 1012.9 |
| 20260509124502 | 59 | 284 | 1.0 | 2.0 | 0.00 | 0.00 | 0.00 | 91 | 1012.5 |
| 20260509123001 | 58 | 285 | 0.0 | 0.0 | 0.00 | 0.00 | 0.00 | 92 | 1012.5 |
| 20260509121600 | 57 | 285 | 1.0 | 3.0 | 0.00 | 0.00 | 0.00 | 92 | 1012.3 |
| 20260509114558 | 56 | 285 | 1.0 | 3.0 | 0.00 | 0.00 | 0.00 | 92 | 1012.1 |
| 20260509113106 | 56 | 284 | 1.0 | 4.0 | 0.00 | 0.00 | 0.00 | 92 | 1011.9 |
| 20260509111654 | 56 | 301 | 3.0 | 5.0 | 0.00 | 0.00 | 0.00 | 92 | 1011.8 |
| 20260509110053 | 56 | 303 | 3.0 | 5.0 | 0.00 | 0.00 | 0.00 | 91 | 1011.7 |
| 20260509104552 | 56 | 302 | 4.0 | 7.0 | 0.00 | 0.00 | 0.00 | 91 | 1011.6 |
| 20260509103051 | 56 | 274 | 3.0 | 4.0 | 0.00 | 0.00 | 0.00 | 92 | 1011.4 |
| 20260509101549 | 56 | 215 | 2.0 | 4.0 | 0.00 | 0.00 | 0.00 | 91 | 1011.4 |
| 20260509100047 | 57 | 215 | 3.0 | 7.0 | 0.00 | 0.00 | 0.00 | 91 | 1011.3 |
| 20260509094545 | 57 | 210 | 5.0 | 7.0 | 0.00 | 0.00 | 0.00 | 91 | 1011.2 |
| 20260509093043 | 58 | 207 | 4.0 | 5.0 | 0.00 | 0.00 | 0.00 | 90 | 1011.2 |
| 20260509091541 | 58 | 201 | 3.0 | 6.0 | 0.00 | 0.00 | 0.00 | 89 | 1011.2 |
| 20260509090038 | 59 | 222 | 3.0 | 4.0 | 0.00 | 0.00 | 0.00 | 88 | 1011.4 |
| 20260509084538 | 59 | 222 | 4.0 | 7.0 | 0.00 | 0.00 | 0.00 | 88 | 1011.3 |
| 20260509083039 | 59 | 238 | 3.0 | 5.0 | 0.00 | 0.00 | 0.00 | 87 | 1011.2 |
| 20260509081537 | 60 | 259 | 5.0 | 6.0 | 0.00 | 0.00 | 0.00 | 87 | 1011.1 |
| 20260509080039 | 60 | 281 | 3.0 | 7.0 | 0.00 | 0.00 | 0.00 | 87 | 1011.2 |
| 20260509074530 | 61 | 328 | 2.0 | 6.0 | 0.00 | 0.00 | 0.00 | 85 | 1011.2 |
| 20260509073027 | 61 | 310 | 4.0 | 10.0 | 0.00 | 0.00 | 0.00 | 84 | 1011.0 |
| 20260509071524 | 62 | 211 | 8.0 | 15.0 | 0.00 | 0.00 | 0.00 | 83 | 1010.8 |
| 20260509070023 | 63 | 211 | 9.0 | 14.0 | 0.00 | 0.00 | 0.00 | 82 | 1011.0 |
| 20260509064523 | 63 | 217 | 11.0 | 16.0 | 0.00 | 0.00 | 0.00 | 81 | 1011.1 |
| 20260509063020 | 63 | 225 | 12.0 | 19.0 | 0.00 | 0.00 | 0.00 | 81 | 1011.3 |
| 20260509061516 | 63 | 215 | 10.0 | 14.0 | 0.00 | 0.00 | 0.00 | 82 | 1011.2 |
| 20260509060016 | 62 | 199 | 8.0 | 12.0 | 0.00 | 0.00 | 0.00 | 82 | 1011.4 |
| 20260509054512 | 62 | 203 | 7.0 | 10.0 | 0.00 | 0.00 | 0.00 | 82 | 1011.6 |
| 20260509053013 | 62 | 198 | 7.0 | 12.0 | 0.00 | 0.00 | 0.00 | 80 | 1011.7 |
| 20260509051508 | 62 | 182 | 9.0 | 13.0 | 0.00 | 0.00 | 0.00 | 80 | 1011.4 |
| 20260509050006 | 62 | 186 | 8.0 | 12.0 | 0.00 | 0.00 | 0.00 | 78 | 1011.5 |
| 20260509044503 | 63 | 181 | 6.0 | 10.0 | 0.00 | 0.00 | 0.00 | 77 | 1011.8 |
| 20260509043002 | 63 | 192 | 6.0 | 10.0 | 0.00 | 0.00 | 0.00 | 75 | 1011.8 |
| 20260509041504 | 63 | 202 | 7.0 | 11.0 | 0.00 | 0.00 | 0.00 | 74 | 1012.1 |
| 20260509040001 | 62 | 180 | 8.0 | 11.0 | 0.00 | 0.00 | 0.00 | 76 | 1011.7 |
| 20260509034601 | 62 | 209 | 6.0 | 7.0 | 0.00 | 0.00 | 0.00 | 77 | 1012.5 |
| 20260509033100 | 62 | 221 | 4.0 | 7.0 | 0.00 | 0.00 | 0.00 | 75 | 1012.5 |
| 20260509031600 | 63 | 225 | 5.0 | 7.0 | 0.00 | 0.00 | 0.00 | 73 | 1012.5 |
| 20260509030059 | 63 | 240 | 5.0 | 8.0 | 0.00 | 0.00 | 0.00 | 74 | 1012.7 |
| 20260509024600 | 63 | 211 | 2.0 | 6.0 | 0.00 | 0.00 | 0.00 | 73 | 1012.4 |
| 20260509023104 | 65 | 200 | 5.0 | 8.0 | 0.00 | 0.00 | 0.00 | 70 | 1012.0 |
| 20260509021557 | 65 | 184 | 6.0 | 9.0 | 0.00 | 0.00 | 0.00 | 70 | 1011.6 |
| 20260509020059 | 64 | 198 | 6.0 | 8.0 | 0.00 | 0.00 | 0.00 | 71 | 1011.7 |
| 20260509014554 | 65 | 202 | 4.0 | 10.0 | 0.00 | 0.00 | 0.00 | 68 | 1011.7 |
| 20260509013059 | 66 | 213 | 6.0 | 8.0 | 0.00 | 0.00 | 0.00 | 66 | 1011.8 |
| 20260509011552 | 67 | 209 | 6.0 | 9.0 | 0.00 | 0.00 | 0.00 | 63 | 1011.6 |
| 20260509010050 | 69 | 210 | 8.0 | 17.0 | 0.00 | 0.00 | 0.00 | 60 | 1011.8 |
| 20260509004551 | 70 | 211 | 10.0 | 17.0 | 0.00 | 0.00 | 0.00 | 58 | 1011.7 |
| 20260509003057 | 71 | 215 | 11.0 | 18.0 | 0.00 | 0.00 | 0.00 | 58 | 1012.1 |
| 20260509001545 | 72 | 204 | 12.0 | 20.0 | 0.00 | 0.00 | 0.00 | 55 | 1012.2 |
| 20260509000047 | 73 | 211 | 13.0 | 17.0 | 0.00 | 0.00 | 0.00 | 53 | 1012.3 |
| 20260508234544 | 73 | 210 | 12.0 | 18.0 | 0.00 | 0.00 | 0.00 | 52 | 1012.5 |
| 20260508233043 | 74 | 197 | 12.0 | 17.0 | 0.00 | 0.00 | 0.00 | 49 | 1012.4 |
| 20260508231542 | 74 | 212 | 12.0 | 17.0 | 0.00 | 0.00 | 0.00 | 49 | 1012.2 |
| 20260508230043 | 75 | 203 | 11.0 | 17.0 | 0.00 | 0.00 | 0.00 | 48 | 1012.3 |
| 20260508224538 | 75 | 190 | 11.0 | 18.0 | 0.00 | 0.00 | 0.00 | 46 | 1012.3 |
| 20260508223040 | 75 | 213 | 12.0 | 21.0 | 0.00 | 0.00 | 0.00 | 49 | 1012.5 |
| 20260508221536 | 75 | 216 | 11.0 | 16.0 | 0.00 | 0.00 | 0.00 | 48 | 1012.7 |
| 20260508220033 | 75 | 195 | 12.0 | 20.0 | 0.00 | 0.00 | 0.00 | 47 | 1012.7 |
| 20260508214532 | 75 | 221 | 10.0 | 18.0 | 0.00 | 0.00 | 0.00 | 47 | 1012.7 |
| 20260508213029 | 75 | 212 | 11.0 | 15.0 | 0.00 | 0.00 | 0.00 | 47 | 1012.9 |
| 20260508211528 | 75 | 212 | 10.0 | 16.0 | 0.00 | 0.00 | 0.00 | 49 | 1013.1 |
| 20260508210024 | 75 | 188 | 11.0 | 19.0 | 0.00 | 0.00 | 0.00 | 49 | 1013.3 |
| 20260508204522 | 74 | 161 | 9.0 | 18.0 | 0.00 | 0.00 | 0.00 | 50 | 1013.2 |
| 20260508203021 | 74 | 213 | 9.0 | 16.0 | 0.00 | 0.00 | 0.00 | 51 | 1013.3 |
| 20260508201524 | 74 | 211 | 12.0 | 18.0 | 0.00 | 0.00 | 0.00 | 52 | 1013.7 |
| 20260508200021 | 74 | 174 | 11.0 | 15.0 | 0.00 | 0.00 | 0.00 | 55 | 1013.8 |
| 20260508194515 | 73 | 181 | 11.0 | 20.0 | 0.00 | 0.00 | 0.00 | 54 | 1014.1 |
| 20260508193017 | 73 | 205 | 12.0 | 19.0 | 0.00 | 0.00 | 0.00 | 53 | 1014.2 |
| 20260508191515 | 72 | 184 | 9.0 | 19.0 | 0.00 | 0.00 | 0.00 | 57 | 1014.4 |
| 20260508190008 | 72 | 200 | 11.0 | 25.0 | 0.00 | 0.00 | 0.00 | 56 | 1014.8 |
| 20260508184507 | 72 | 194 | 10.0 | 20.0 | 0.00 | 0.00 | 0.00 | 58 | 1015.3 |